Location: Feydey
(46.3431°N, 7.0106°E)
Time: 08:36:59
(UTC+00:00)

USA 229 DEB - Pass Details

Date: 20 June 2021
Orbit: 955 x 1257 km, 63.4° (Epoch: 25 July)

Event Time Altitude Azimuth Distance (km) Brightness Sun altitude
Exits shadow 23:38:38 35° 189° (S) 1,537 4.0 -20.2°
Maximum altitude 23:41:18 63° 122° (ESE) 1,124 3.6 -20.2°
Drops below altitude 10° 23:48:00 10° 44° (NE) 2,901 6.7 -20.1°
Sets 23:50:46 0° 41° (NE) 3,905 7.5 -20.1°
